QPF
0.00 0.00 0.01 0.00 0.00 0.00 0.00 0.00 0.00 0.00 0.00 0.00 0.00 0.00 0.00 0.00 0.00 0.00 0.00 0.00 0.00 0.00 0.01 0.04 0.08 0.05 0.03 0.01 0.01 0.01 0.00 0.00 0.00 0.00 0.00 0.00 0.00 0.00 0.00 0.00 0.00 0.00 0.00
0.00 0.00 0.00 0.00 0.00 0.00 0.00 0.00 0.00 0.00 0.00 0.00 0.00 0.00 0.00 0.00 0.00 0.00 0.00 0.01 0.01 0.01 0.01 0.02 0.03 0.04 0.00 0.00 0.00 0.00 0.00 0.00 0.00 0.00 0.00 0.00 0.00 0.00 0.00 0.00 0.00 0.00 0.00
0.00 0.00 0.00 0.00 0.00 0.00 0.00 0.00 0.00 0.00 0.00 0.00 0.00 0.00 0.00 0.00 0.00 0.00 0.00 0.00 0.00 0.00 0.00 0.00 0.00 0.00 0.00 0.00 0.00 0.00 0.00 0.00 0.00 0.00 0.00 0.00 0.00 0.00 0.00 0.00 0.00 0.00 0.00
0.00 0.00 0.00 0.00 0.00 0.00 0.00 0.00 0.00 0.00 0.00 0.00 0.00 0.00 0.00 0.00 0.00 0.00 0.00 0.00 0.00 0.00 0.00 0.00 0.00 0.00 0.00 0.00 0.00 0.00 0.00 0.00 0.00 0.00 0.00 0.00 0.00 0.00 0.00 0.00 0.00 0.00 0.00
0.00 0.00 0.00 0.00 0.00 0.00 0.00 0.00 0.00 0.00 0.00 0.00 0.00 0.00 0.00 0.00 0.00 0.00 0.00 0.00 0.00 0.00 0.00 0.00 0.00 0.00 0.00 0.00 0.00 0.00 0.00 0.00 0.00 0.00 0.00 0.00 0.00 0.00 0.00 0.00 0.00 0.00 0.00
0.00 0.00 0.00 0.00 0.00 0.00 0.00 0.00 0.00 0.00 0.00 0.00 0.00 0.00 0.00 0.00 0.00 0.00 0.00 0.00 0.00 0.00 0.00 0.00 0.00 0.00 0.00 0.00 0.00 0.00 0.00 0.00 0.00 0.00 0.00 0.00 0.00 0.00 0.00 0.00 0.00 0.00 0.00
0.00 0.00 0.00 0.00 0.00 0.00 0.00 0.00 0.00 0.00 0.00 0.00 0.00 0.00 0.00 0.00 0.00 0.00 0.00 0.00 0.00 0.00 0.00 0.00 0.00 0.00 0.00 0.00 0.00 0.00 0.00 0.00 0.00 0.00 0.00 0.00 0.00 0.00 0.00 0.00 0.00 0.00 0.00
0.00 0.00 0.00 0.00 0.00 0.00 0.00 0.00 0.00 0.00 0.00 0.00 0.00 0.00 0.00 0.00 0.00 0.00 0.00 0.00 0.00 0.00 0.00 0.00 0.00 0.00 0.00 0.00 0.00 0.00 0.00 0.00 0.00 0.00 0.00 0.00 0.00 0.00 0.00 0.00 0.00 0.00 0.00
0.00 0.00 0.00 0.00 0.00 0.00 0.00 0.00 0.00 0.00 0.00 0.00 0.00 0.00 0.00 0.00 0.00 0.00 0.00 0.00 0.00 0.00 0.00 0.00 0.00 0.00 0.00 0.00 0.00 0.00 0.00 0.00 0.00 0.00 0.00 0.00 0.00 0.00 0.00 0.00 0.00 0.00 0.00
0.00 0.00 0.00 0.00 0.00 0.00 0.00 0.00 0.00 0.00 0.00 0.00 0.00 0.00 0.00 0.00 0.00 0.00 0.00 0.00 0.00 0.00 0.00 0.00 0.00 0.00 0.00 0.00 0.00 0.00 0.00 0.00 0.00 0.00 0.00 0.00 0.00 0.00 0.00 0.00 0.00 0.00 0.00
0.00 0.00 0.00 0.00 0.00 0.00 0.00 0.00 0.00 0.00 0.00 0.00 0.00 0.00 0.00 0.00 0.00 0.00 0.00 0.00 0.00 0.00 0.00 0.00 0.00 0.00 0.00 0.00 0.00 0.00 0.00 0.00 0.00 0.00 0.00 0.00 0.00 0.00 0.00 0.00 0.00 0.00 0.00
0.00 0.00 0.00 0.00 0.00 0.00 0.00 0.00 0.00 0.00 0.00 0.00 0.00 0.00 0.00 0.00 0.00 0.00 0.00 0.00 0.00 0.00 0.00 0.00 0.00 0.00 0.00 0.00 0.00 0.00 0.00 0.00 0.00 0.00 0.00 0.00 0.00 0.00 0.00 0.00 0.00 0.00 0.00
0.00 0.00 0.00 0.00 0.00 0.00 0.00 0.00 0.00 0.00 0.00 0.00 0.00 0.00 0.00 0.00 0.00 0.00 0.00 0.00 0.00 0.00 0.00 0.00 0.00 0.00 0.00 0.00 0.00 0.00 0.00 0.00 0.00 0.00 0.00 0.00 0.00 0.00 0.00 0.00 0.00 0.00 0.00
0.00 0.00 0.00 0.00 0.00 0.00 0.00 0.00 0.00 0.00 0.00 0.00 0.00 0.00 0.00 0.00 0.00 0.00 0.00 0.00 0.00 0.00 0.00 0.00 0.00 0.00 0.00 0.00 0.00 0.00 0.00 0.00 0.00 0.00 0.00 0.00 0.00 0.00 0.00 0.00 0.00 0.00 0.00
0.00 0.00 0.00 0.00 0.00 0.00 0.00 0.00 0.00 0.00 0.00 0.00 0.00 0.00 0.00 0.00 0.00 0.00 0.00 0.00 0.00 0.00 0.00 0.00 0.00 0.00 0.00 0.00 0.00 0.00 0.00 0.00 0.00 0.00 0.00 0.00 0.00 0.00 0.00 0.00 0.00 0.00 0.00
0.00 0.00 0.00 0.00 0.00 0.00 0.00 0.00 0.00 0.00 0.00 0.00 0.00 0.00 0.00 0.00 0.00 0.00 0.00 0.00 0.00 0.00 0.00 0.00 0.00 0.00 0.00 0.00 0.00 0.00 0.00 0.00 0.00 0.00 0.00 0.00 0.00 0.00 0.00 0.00 0.00 0.00 0.00
0.00 0.00 0.00 0.00 0.00 0.00 0.00 0.00 0.00 0.00 0.00 0.00 0.00 0.00 0.00 0.00 0.00 0.00 0.00 0.00 0.00 0.00 0.00 0.00 0.00 0.00 0.00 0.00 0.00 0.00 0.00 0.00 0.00 0.00 0.00 0.00 0.00 0.00 0.00 0.00 0.01 0.01 0.01
0.00 0.00 0.00 0.00 0.00 0.00 0.00 0.00 0.00 0.00 0.00 0.00 0.00 0.00 0.00 0.00 0.00 0.00 0.00 0.00 0.00 0.00 0.00 0.00 0.00 0.00 0.00 0.00 0.00 0.00 0.00 0.00 0.00 0.00 0.00 0.00 0.00 0.01 0.01 0.01 0.01 0.01 0.01
0.00 0.00 0.00 0.00 0.00 0.00 0.00 0.00 0.00 0.00 0.00 0.00 0.00 0.00 0.00 0.00 0.00 0.00 0.00 0.00 0.00 0.00 0.00 0.00 0.00 0.00 0.00 0.00 0.00 0.00 0.00 0.00 0.00 0.00 0.01 0.01 0.01 0.01 0.01 0.01 0.01 0.01 0.01
0.00 0.00 0.00 0.00 0.00 0.00 0.00 0.00 0.00 0.00 0.00 0.00 0.00 0.00 0.00 0.00 0.00 0.00 0.00 0.00 0.00 0.00 0.00 0.00 0.00 0.00 0.00 0.00 0.00 0.00 0.00 0.00 0.00 0.00 0.01 0.01 0.00 0.00 0.00 0.00 0.01 0.01 0.01
0.00 0.00 0.00 0.00 0.00 0.00 0.00 0.00 0.00 0.00 0.00 0.00 0.00 0.00 0.00 0.00 0.00 0.00 0.00 0.00 0.00 0.00 0.00 0.00 0.00 0.00 0.00 0.00 0.00 0.00 0.00 0.00 0.01 0.01 0.01 0.00 0.00 0.00 0.00 0.00 0.01 0.01 0.01
0.00 0.00 0.00 0.00 0.00 0.00 0.00 0.00 0.00 0.00 0.00 0.00 0.00 0.00 0.00 0.00 0.00 0.00 0.00 0.00 0.00 0.00 0.00 0.00 0.00 0.00 0.00 0.00 0.00 0.00 0.00 0.00 0.00 0.01 0.00 0.00 0.00 0.00 0.00 0.00 0.01 0.01 0.01
0.00 0.00 0.00 0.00 0.00 0.00 0.00 0.00 0.00 0.00 0.00 0.00 0.00 0.00 0.00 0.00 0.00 0.00 0.00 0.00 0.00 0.00 0.00 0.00 0.00 0.00 0.00 0.00 0.00 0.01 0.01 0.01 0.01 0.01 0.01 0.01 0.01 0.00 0.00 0.00 0.01 0.01 0.01
0.00 0.00 0.00 0.00 0.00 0.00 0.00 0.00 0.00 0.00 0.00 0.00 0.00 0.00 0.00 0.00 0.00 0.00 0.00 0.00 0.00 0.00 0.00 0.00 0.00 0.00 0.00 0.00 0.00 0.01 0.01 0.01 0.01 0.02 0.02 0.02 0.01 0.00 0.00 0.00 0.01 0.01 0.01
0.00 0.00 0.00 0.00 0.00 0.00 0.00 0.00 0.00 0.00 0.00 0.00 0.00 0.00 0.00 0.00 0.00 0.00 0.00 0.00 0.00 0.00 0.00 0.00 0.00 0.00 0.00 0.00 0.00 0.00 0.00 0.00 0.00 0.00 0.01 0.02 0.01 0.00 0.00 0.00 0.01 0.01 0.01
0.00 0.00 0.00 0.00 0.00 0.00 0.00 0.00 0.00 0.00 0.00 0.00 0.00 0.00 0.00 0.00 0.00 0.00 0.00 0.00 0.00 0.00 0.00 0.00 0.00 0.00 0.00 0.00 0.00 0.00 0.00 0.00 0.00 0.00 0.00 0.00 0.00 0.00 0.00 0.00 0.00 0.01 0.00
MSLP
1010.87 1011.38 1011.63 1012.01 1012.27 1012.44 1012.81 1013.25 1013.39 1013.65 1013.54 1013.32 1013.45 1013.60 1013.62 1013.56 1013.75 1013.57 1013.67 1013.60 1013.48 1013.51 1013.54 1013.33 1013.25 1013.38 1013.49 1013.88 1013.83 1013.66 1013.59 1013.22 1013.33 1013.41 1013.27 1013.25 1013.37 1013.32 1013.17 1013.25 1013.20 1013.12 1012.87
1011.08 1011.49 1011.84 1012.18 1012.45 1012.55 1012.78 1013.02 1013.26 1013.43 1013.69 1013.77 1013.66 1013.67 1013.80 1013.80 1013.80 1013.75 1013.53 1013.67 1013.68 1013.81 1013.82 1013.81 1013.95 1014.00 1014.21 1014.15 1014.13 1014.21 1014.06 1013.56 1013.60 1013.45 1013.68 1013.62 1013.66 1013.64 1013.56 1013.47 1012.94 1012.58 1012.43
1010.80 1011.33 1011.94 1012.28 1012.59 1012.84 1013.01 1013.24 1013.62 1014.00 1014.16 1014.04 1013.85 1013.78 1013.85 1013.99 1014.05 1014.18 1014.14 1014.30 1014.37 1014.48 1014.53 1014.49 1014.59 1014.89 1014.98 1015.13 1015.16 1015.05 1014.66 1014.59 1014.34 1013.96 1013.78 1013.74 1013.72 1013.65 1013.66 1013.38 1013.20 1012.73 1012.31
1011.19 1011.78 1012.28 1012.68 1012.94 1013.11 1013.49 1013.66 1013.82 1013.92 1013.93 1014.00 1014.01 1014.29 1014.37 1014.44 1014.50 1014.50 1014.48 1014.67 1014.79 1014.91 1015.05 1015.17 1015.32 1015.40 1015.57 1015.96 1015.96 1015.95 1015.66 1015.23 1015.11 1014.86 1014.62 1014.02 1013.60 1013.29 1013.48 1013.19 1012.94 1012.46 1011.85
1011.86 1012.28 1012.57 1012.90 1013.16 1013.49 1013.78 1014.06 1013.99 1013.97 1014.09 1014.35 1014.42 1014.57 1014.60 1014.58 1014.67 1014.82 1014.88 1015.06 1015.16 1015.23 1015.29 1015.42 1015.76 1015.97 1016.05 1016.07 1015.76 1016.07 1015.84 1015.53 1015.46 1015.19 1014.97 1014.73 1014.11 1013.52 1013.22 1013.15 1012.77 1012.31 1011.96
1012.37 1012.73 1013.09 1013.66 1013.91 1014.18 1014.38 1014.50 1014.55 1014.70 1014.64 1014.67 1014.85 1014.87 1014.82 1014.80 1015.24 1015.22 1015.20 1015.36 1015.51 1015.50 1015.47 1015.71 1015.89 1016.07 1016.15 1016.28 1016.34 1016.26 1016.09 1015.66 1015.42 1015.17 1014.83 1014.63 1014.44 1014.10 1013.57 1013.41 1012.80 1012.45 1011.57
1012.74 1013.19 1013.68 1014.22 1014.38 1014.35 1014.54 1014.74 1014.90 1015.10 1015.23 1015.37 1015.43 1015.26 1015.42 1015.44 1015.62 1015.65 1015.70 1015.61 1015.67 1015.87 1015.94 1015.91 1015.74 1015.99 1016.23 1016.15 1016.02 1015.88 1015.63 1015.63 1015.69 1015.40 1014.79 1014.42 1014.10 1014.03 1014.13 1013.65 1013.17 1012.72 1011.91
1013.05 1013.62 1014.15 1014.52 1014.68 1014.55 1014.96 1015.09 1015.15 1015.46 1015.53 1015.65 1015.75 1015.76 1015.65 1015.70 1015.88 1015.89 1015.92 1015.84 1015.91 1016.01 1016.10 1016.12 1016.10 1016.17 1016.25 1016.37 1016.03 1015.55 1015.19 1014.91 1014.82 1014.78 1014.50 1014.09 1014.00 1013.87 1013.87 1013.58 1013.22 1012.75 1012.10
1012.91 1013.73 1014.10 1014.14 1014.20 1014.50 1015.15 1015.30 1015.49 1015.65 1015.73 1015.97 1016.11 1016.09 1015.98 1015.93 1016.09 1016.06 1016.03 1015.93 1015.87 1015.95 1016.06 1016.09 1016.14 1016.10 1016.36 1016.40 1015.91 1015.34 1014.97 1014.48 1014.19 1014.34 1014.31 1014.13 1013.94 1013.73 1013.50 1013.09 1012.25 1011.77 1010.89
1012.84 1013.44 1013.92 1014.08 1014.46 1014.94 1015.14 1015.61 1015.86 1015.92 1016.17 1016.18 1016.16 1016.15 1016.33 1016.06 1016.17 1016.06 1016.12 1015.73 1015.64 1015.55 1015.78 1015.79 1015.91 1016.14 1016.14 1016.11 1015.82 1015.16 1014.49 1013.91 1013.77 1013.53 1013.39 1013.13 1012.65 1012.35 1012.67 1012.61 1011.89 1011.04 1010.59
1012.93 1013.57 1013.89 1014.37 1015.09 1015.37 1015.45 1015.78 1016.02 1016.11 1016.24 1016.27 1016.18 1016.24 1016.25 1016.37 1016.23 1016.33 1016.17 1015.86 1015.58 1015.50 1015.36 1015.30 1015.47 1015.80 1015.73 1015.53 1015.44 1014.92 1014.31 1014.12 1013.57 1012.98 1012.46 1012.19 1011.93 1011.54 1011.21 1011.07 1011.10 1010.82 1010.29
1013.01 1013.58 1014.12 1014.83 1014.96 1015.12 1015.61 1015.89 1015.99 1016.07 1015.93 1015.99 1016.06 1016.04 1016.16 1016.40 1016.42 1016.40 1016.35 1016.26 1016.24 1015.77 1015.45 1015.31 1015.32 1015.35 1015.35 1015.16 1014.89 1014.32 1014.10 1013.78 1012.70 1012.01 1011.79 1011.63 1011.18 1010.80 1010.59 1010.40 1010.30 1010.22 1009.95
1012.95 1013.72 1014.41 1014.84 1014.94 1015.11 1015.29 1015.29 1015.04 1015.83 1015.84 1015.63 1015.62 1015.58 1015.66 1016.02 1016.21 1016.48 1016.49 1016.40 1016.30 1015.90 1015.49 1015.34 1015.32 1015.04 1014.65 1014.13 1013.65 1013.72 1013.48 1012.38 1011.85 1011.78 1011.59 1011.33 1011.04 1010.52 1010.35 1010.19 1009.81 1009.78 1009.66
1013.08 1013.59 1014.10 1014.66 1014.83 1015.07 1014.94 1014.58 1014.90 1015.24 1015.59 1015.78 1015.68 1015.46 1015.54 1015.77 1015.89 1016.05 1015.98 1015.85 1015.77 1015.57 1015.30 1014.86 1014.74 1014.59 1013.94 1013.50 1012.91 1012.34 1012.02 1011.75 1011.70 1011.73 1011.55 1011.13 1010.87 1010.42 1009.71 1009.46 1009.13 1008.99 1008.88
1013.26 1013.63 1014.35 1014.74 1014.64 1015.01 1014.97 1015.41 1015.38 1015.79 1015.99 1016.12 1016.08 1015.92 1015.73 1015.57 1015.75 1016.15 1016.04 1015.67 1015.37 1015.26 1015.47 1014.66 1013.87 1013.13 1012.59 1012.18 1011.70 1011.43 1011.24 1011.19 1011.08 1010.96 1010.82 1010.61 1010.33 1009.93 1009.37 1008.93 1008.64 1008.54 1008.31
1013.15 1013.80 1014.49 1014.42 1014.41 1014.42 1014.65 1015.31 1016.06 1015.90 1016.26 1016.43 1016.52 1016.44 1016.06 1016.15 1016.15 1016.16 1015.99 1015.82 1015.50 1015.51 1015.06 1013.92 1012.95 1012.29 1011.80 1011.34 1010.95 1010.60 1010.38 1010.34 1010.30 1010.18 1009.96 1009.80 1009.58 1009.29 1008.95 1008.65 1008.37 1008.07 1007.74
1013.14 1014.02 1014.18 1014.04 1014.14 1014.30 1014.62 1014.95 1014.95 1015.63 1015.91 1016.35 1016.36 1016.33 1016.27 1016.09 1015.99 1015.80 1015.45 1015.57 1015.09 1015.20 1014.33 1012.94 1012.00 1011.44 1010.93 1010.53 1010.11 1009.60 1009.08 1008.93 1009.12 1009.06 1009.05 1008.85 1008.57 1008.45 1008.30 1007.95 1007.65 1007.45 1007.13
1013.67 1014.00 1013.95 1013.87 1014.11 1014.51 1014.84 1015.09 1015.21 1015.41 1015.26 1015.34 1015.63 1015.76 1015.60 1015.63 1015.48 1015.19 1015.03 1014.94 1013.99 1013.15 1012.84 1011.71 1010.91 1010.52 1010.08 1009.66 1009.26 1008.71 1008.22 1007.88 1007.68 1007.55 1007.71 1007.85 1007.71 1007.59 1007.42 1007.13 1006.87 1006.62 1006.29
1013.35 1013.43 1013.58 1013.80 1014.14 1014.40 1014.57 1014.75 1014.94 1015.02 1015.03 1015.02 1014.96 1014.99 1014.87 1014.97 1014.84 1014.35 1014.02 1013.98 1012.85 1012.05 1011.37 1010.53 1010.07 1009.55 1009.01 1008.55 1008.08 1007.67 1007.31 1006.91 1006.68 1006.59 1006.51 1006.42 1006.27 1006.24 1006.21 1006.25 1006.17 1005.87 1005.60
1013.25 1013.59 1013.64 1013.82 1014.26 1014.52 1014.72 1014.65 1014.55 1014.94 1014.71 1014.50 1014.45 1014.28 1014.15 1014.00 1013.57 1012.98 1012.41 1012.00 1011.50 1010.89 1010.18 1009.63 1009.05 1008.62 1008.08 1007.54 1007.04 1006.59 1006.20 1005.81 1005.55 1005.40 1005.29 1005.19 1005.13 1005.31 1005.39 1005.46 1005.49 1005.31 1004.59
1012.97 1013.48 1013.61 1013.63 1013.90 1014.07 1014.49 1014.44 1014.70 1014.28 1014.21 1014.11 1013.92 1013.71 1014.02 1014.05 1013.01 1012.23 1011.56 1011.00 1010.53 1009.93 1009.32 1008.82 1008.28 1007.80 1007.28 1006.71 1006.08 1005.62 1005.24 1004.70 1004.34 1003.96 1003.74 1003.99 1004.20 1004.38 1004.59 1004.65 1004.69 1004.27 1003.95
1013.07 1013.47 1013.41 1013.70 1013.78 1014.02 1014.14 1014.21 1014.39 1014.20 1014.00 1013.82 1013.41 1013.01 1013.18 1013.04 1011.98 1011.35 1010.80 1010.32 1009.81 1009.29 1008.78 1008.21 1007.68 1007.10 1006.38 1006.02 1005.32 1004.58 1003.90 1003.45 1003.11 1002.88 1002.77 1002.81 1002.89 1003.16 1003.58 1003.91 1003.85 1003.48 1003.42
1013.07 1012.94 1013.32 1013.64 1013.85 1014.18 1013.92 1014.13 1013.96 1013.82 1013.64 1013.42 1013.02 1012.59 1012.23 1011.84 1011.36 1010.81 1010.33 1009.83 1009.32 1008.75 1008.18 1007.75 1007.10 1006.43 1005.71 1005.14 1004.60 1003.90 1002.93 1002.42 1002.15 1001.98 1001.67 1001.74 1001.99 1002.20 1002.76 1003.12 1003.00 1002.72 1002.84
1012.93 1012.97 1013.02 1013.28 1013.67 1013.88 1013.64 1013.72 1013.80 1013.57 1013.51 1013.03 1012.52 1012.16 1011.76 1011.36 1010.88 1010.43 1010.02 1009.44 1008.93 1008.34 1007.82 1007.24 1006.60 1005.81 1005.16 1004.66 1004.03 1003.37 1003.17 1002.88 1002.56 1001.82 1000.89 1000.86 1001.11 1001.50 1002.24 1002.56 1002.53 1002.19 1002.30
1012.68 1012.88 1012.95 1013.20 1013.42 1013.45 1013.43 1013.51 1013.43 1013.28 1012.92 1012.49 1012.10 1011.68 1011.18 1010.86 1010.40 1009.95 1009.52 1009.13 1008.61 1008.07 1007.36 1006.80 1006.14 1005.40 1004.88 1004.27 1003.71 1003.38 1002.64 1002.11 1001.60 1001.35 1001.31 1000.75 1000.56 1001.09 1001.66 1001.97 1002.03 1001.82 1002.02
1012.70 1012.95 1013.01 1013.11 1013.06 1013.14 1013.31 1013.27 1013.08 1012.78 1012.44 1012.06 1011.64 1011.17 1010.80 1010.43 1009.96 1009.57 1009.27 1008.85 1008.27 1007.79 1007.01 1006.43 1005.72 1005.17 1004.58 1004.03 1003.73 1003.15 1002.29 1001.55 1000.96 1000.91 1000.92 1000.47 1000.63 1000.99 1001.38 1001.63 1001.67 1001.51 1001.72
Thickness
5783 5778 5776 5771 5768 5764 5758 5752 5748 5744 5744 5745 5741 5736 5733 5732 5729 5729 5725 5724 5723 5720 5718 5717 5715 5713 5710 5705 5703 5703 5701 5704 5698 5698 5703 5706 5706 5708 5710 5710 5711 5712 5715
5777 5773 5769 5766 5763 5761 5757 5752 5748 5743 5739 5736 5736 5733 5729 5726 5724 5721 5721 5718 5715 5710 5708 5706 5703 5701 5697 5697 5695 5692 5691 5695 5693 5690 5692 5694 5693 5697 5698 5700 5706 5708 5711
5776 5771 5763 5758 5753 5751 5748 5745 5739 5734 5730 5731 5731 5728 5724 5719 5715 5711 5709 5705 5702 5698 5695 5694 5691 5687 5683 5680 5678 5677 5681 5681 5681 5682 5684 5686 5686 5686 5686 5690 5694 5700 5703
5773 5764 5755 5749 5746 5744 5739 5736 5733 5730 5727 5725 5722 5716 5712 5709 5705 5702 5698 5693 5689 5686 5683 5680 5677 5674 5670 5665 5664 5662 5664 5666 5665 5665 5668 5673 5677 5681 5679 5680 5683 5690 5696
5760 5753 5747 5743 5740 5735 5731 5726 5725 5723 5719 5713 5710 5705 5702 5698 5694 5689 5686 5681 5678 5675 5673 5670 5665 5661 5659 5657 5658 5653 5654 5656 5655 5656 5656 5657 5660 5669 5669 5672 5675 5680 5684
5751 5744 5739 5732 5730 5725 5721 5716 5713 5708 5707 5703 5697 5694 5691 5688 5680 5677 5675 5670 5666 5664 5661 5658 5655 5651 5649 5645 5643 5642 5642 5644 5645 5647 5650 5650 5648 5652 5658 5660 5665 5667 5673
5744 5738 5731 5725 5720 5718 5714 5708 5702 5696 5692 5687 5683 5682 5676 5673 5668 5664 5661 5659 5656 5652 5648 5646 5646 5642 5638 5637 5636 5635 5635 5632 5630 5632 5636 5638 5642 5642 5642 5645 5651 5655 5662
5737 5730 5722 5716 5711 5711 5702 5697 5694 5687 5682 5677 5672 5668 5665 5662 5657 5654 5650 5648 5644 5639 5636 5633 5631 5627 5625 5622 5623 5625 5626 5626 5625 5625 5626 5629 5629 5631 5631 5634 5639 5643 5650
5733 5723 5717 5714 5710 5704 5693 5688 5684 5678 5674 5666 5660 5656 5654 5652 5646 5643 5639 5637 5633 5628 5624 5620 5617 5614 5609 5607 5609 5612 5612 5614 5614 5613 5612 5613 5615 5616 5619 5624 5631 5637 5647
5729 5720 5714 5708 5701 5693 5687 5678 5672 5668 5661 5656 5652 5649 5642 5642 5635 5633 5629 5627 5622 5618 5612 5608 5603 5598 5595 5592 5593 5596 5599 5602 5601 5602 5602 5604 5607 5610 5609 5612 5619 5627 5631
5722 5714 5708 5700 5689 5681 5675 5669 5662 5657 5651 5646 5643 5640 5636 5630 5627 5620 5616 5615 5610 5605 5601 5596 5591 5583 5579 5576 5574 5577 5581 5580 5584 5587 5592 5593 5595 5598 5602 5605 5606 5611 5618
5716 5706 5698 5689 5680 5675 5667 5660 5655 5649 5646 5641 5636 5632 5627 5619 5613 5608 5601 5595 5588 5586 5582 5578 5572 5566 5561 5559 5558 5560 5558 5559 5568 5573 5575 5576 5581 5584 5587 5590 5592 5596 5602
5709 5699 5689 5678 5673 5670 5664 5660 5658 5644 5638 5636 5631 5626 5620 5612 5604 5592 5585 5578 5571 5568 5565 5558 5552 5549 5547 5548 5548 5543 5541 5549 5551 5551 5552 5555 5558 5564 5568 5571 5576 5579 5584
5701 5693 5684 5673 5668 5664 5661 5660 5651 5643 5634 5627 5622 5618 5611 5602 5593 5584 5576 5568 5560 5555 5549 5546 5539 5533 5533 5532 5532 5533 5532 5532 5530 5528 5529 5535 5538 5543 5551 5556 5561 5566 5571
5691 5684 5672 5665 5664 5655 5650 5642 5638 5630 5622 5617 5609 5603 5598 5592 5582 5569 5560 5554 5547 5540 5529 5531 5530 5529 5528 5527 5526 5523 5520 5517 5515 5514 5515 5517 5521 5528 5535 5541 5546 5550 5556
5683 5674 5664 5662 5658 5654 5647 5636 5621 5617 5608 5600 5592 5587 5585 5574 5564 5554 5545 5536 5529 5522 5522 5525 5527 5527 5525 5524 5523 5521 5518 5514 5510 5508 5507 5506 5509 5514 5520 5525 5531 5537 5541
5677 5666 5661 5658 5652 5646 5639 5632 5626 5614 5602 5591 5584 5577 5569 5563 5553 5544 5538 5528 5523 5515 5521 5527 5528 5526 5525 5523 5522 5522 5521 5517 5512 5509 5506 5504 5505 5507 5509 5515 5519 5524 5530
5666 5655 5654 5652 5646 5636 5627 5619 5613 5604 5599 5592 5581 5572 5566 5554 5545 5539 5531 5526 5531 5528 5526 5529 5528 5525 5523 5522 5520 5520 5520 5517 5515 5514 5509 5505 5505 5505 5505 5508 5511 5514 5519
5661 5657 5651 5647 5640 5629 5622 5614 5607 5598 5591 5584 5577 5568 5561 5548 5540 5537 5531 5527 5532 5531 5530 5531 5528 5527 5527 5526 5524 5523 5521 5519 5517 5514 5511 5509 5509 5509 5508 5506 5506 5508 5511
5653 5647 5644 5640 5628 5619 5610 5606 5599 5588 5584 5578 5571 5564 5557 5549 5546 5544 5540 5536 5534 5533 5534 5534 5532 5530 5528 5527 5525 5523 5522 5520 5517 5514 5513 5512 5510 5507 5506 5504 5502 5501 5510
5649 5644 5638 5633 5623 5616 5606 5599 5589 5587 5580 5572 5565 5558 5544 5540 5542 5542 5539 5537 5535 5536 5537 5535 5533 5532 5530 5527 5524 5520 5515 5513 5511 5510 5510 5507 5505 5503 5501 5501 5499 5504 5506
5642 5635 5632 5621 5616 5609 5603 5593 5586 5581 5574 5565 5559 5554 5543 5540 5543 5541 5539 5537 5537 5537 5536 5536 5535 5533 5530 5523 5518 5515 5509 5502 5499 5497 5498 5499 5501 5500 5497 5494 5496 5502 5502
5635 5632 5623 5615 5610 5598 5596 5589 5583 5576 5567 5560 5555 5551 5547 5543 5541 5539 5538 5538 5538 5537 5537 5535 5535 5532 5528 5523 5517 5510 5505 5498 5492 5490 5493 5494 5494 5493 5488 5486 5489 5494 5496
5629 5623 5619 5614 5604 5596 5594 5586 5576 5567 5559 5556 5553 5548 5544 5542 5539 5538 5536 5537 5537 5536 5536 5536 5533 5531 5527 5522 5518 5512 5502 5493 5487 5489 5495 5494 5493 5486 5482 5480 5481 5486 5488
5623 5618 5614 5608 5600 5595 5590 5580 5572 5565 5559 5555 5551 5547 5545 5541 5539 5539 5538 5536 5536 5536 5538 5535 5533 5531 5527 5523 5518 5512 5509 5504 5500 5496 5492 5495 5494 5488 5482 5479 5481 5486 5487
5618 5611 5608 5602 5598 5592 5583 5576 5570 5564 5559 5554 5550 5548 5545 5542 5541 5540 5537 5536 5536 5535 5538 5536 5534 5531 5528 5524 5519 5516 5515 5513 5510 5504 5500 5500 5494 5489 5485 5483 5483 5488 5488